When you browse on this site, cookies collect data to enhance your experience and personalize the content and advertising you see.
Visit our Privacy Policy to learn more. By continuing to use the site, you agree to this use of cookies and data.
  • In Lithuania
  • List of Countries
  • For 7 days
  • Water Temperature
  • Satellite Maps
  • Weather Map
  • Weather Widgets
  • user-avatar
    Login

    Hourly Weather Kudinov

    Today, 22 March, Friday

    Time Temperature Precipitation Wind Pressure Humidity
    00:00 +5°C° 0 mm 2 mps 763 mmHg 69%
    01:00 +5°C° 0.1 mm 2 mps 763 mmHg 72%
    02:00 +3°C° 0.1 mm 3 mps 763 mmHg 75%
    03:00 +2°C° 0 mm 3 mps 762 mmHg 79%
    04:00 +2°C° 0 mm 3 mps 762 mmHg 82%
    05:00 +1°C° 0 mm 3 mps 762 mmHg 85%
    06:00 0°C° 0 mm 3 mps 762 mmHg 89%
    07:00 +1°C° 0 mm 3 mps 762 mmHg 84%
    08:00 +1°C° 0 mm 4 mps 762 mmHg 80%
    09:00 +3°C° 0 mm 4 mps 762 mmHg 76%
    10:00 +3°C° 0 mm 4 mps 762 mmHg 71%
    11:00 +4°C° 0 mm 4 mps 762 mmHg 67%
    12:00 +5°C° 0 mm 4 mps 762 mmHg 62%
    13:00 +5°C° 0 mm 4 mps 761 mmHg 59%
    14:00 +6°C° 0 mm 4 mps 761 mmHg 56%
    15:00 +7°C° 0 mm 4 mps 760 mmHg 53%
    16:00 +7°C° 0 mm 4 mps 760 mmHg 56%
    17:00 +7°C° 0 mm 4 mps 759 mmHg 58%
    18:00 +7°C° 0 mm 4 mps 758 mmHg 60%
    19:00 +6°C° 0.2 mm 5 mps 757 mmHg 64%
    20:00 +5°C° 0.2 mm 6 mps 756 mmHg 68%
    21:00 +5°C° 0.2 mm 7 mps 755 mmHg 72%
    22:00 +4°C° 1 mm 7 mps 754 mmHg 76%
    23:00 +4°C° 1 mm 8 mps 754 mmHg 80%

    Tomorrow, 23 March, Saturday

    Time Temperature Precipitation Wind Pressure Humidity
    00:00 +4°C° 1 mm 8 mps 753 mmHg 83%
    01:00 +2°C° 0.4 mm 8 mps 753 mmHg 81%
    02:00 +1°C° 0.4 mm 8 mps 753 mmHg 78%
    03:00 0°C° 0.4 mm 8 mps 753 mmHg 76%
    04:00 0°C° 0 mm 7 mps 753 mmHg 76%
    05:00 -1°C° 0 mm 7 mps 753 mmHg 76%
    06:00 -1°C° 0 mm 7 mps 754 mmHg 76%
    07:00 -1°C° 0 mm 7 mps 754 mmHg 73%
    08:00 -1°C° 0 mm 7 mps 754 mmHg 71%
    09:00 -1°C° 0 mm 6 mps 755 mmHg 68%
    10:00 +1°C° 0 mm 6 mps 755 mmHg 65%
    11:00 +1°C° 0 mm 6 mps 755 mmHg 62%
    12:00 +2°C° 0 mm 5 mps 755 mmHg 59%
    13:00 +3°C° 0 mm 5 mps 755 mmHg 57%
    14:00 +3°C° 0 mm 5 mps 755 mmHg 55%
    15:00 +5°C° 0 mm 4 mps 755 mmHg 53%
    16:00 +4°C° 0.1 mm 4 mps 756 mmHg 55%
    17:00 +4°C° 0.1 mm 3 mps 756 mmHg 57%
    18:00 +4°C° 0.1 mm 3 mps 756 mmHg 59%
    19:00 +5°C° 0 mm 2 mps 756 mmHg 62%
    20:00 +4°C° 0 mm 2 mps 757 mmHg 65%
    21:00 +4°C° 0 mm 2 mps 757 mmHg 68%
    22:00 +3°C° 0 mm 2 mps 757 mmHg 70%
    23:00 +3°C° 0 mm 2 mps 758 mmHg 71%

    Day after tomorrow, 24 March, Sunday

    Time Temperature Precipitation Wind Pressure Humidity
    00:00 +2°C° 0 mm 2 mps 758 mmHg 73%
    01:00 +2°C° 0 mm 2 mps 758 mmHg 74%
    02:00 +2°C° 0 mm 2 mps 758 mmHg 75%
    03:00 +2°C° 0 mm 2 mps 758 mmHg 76%
    04:00 +2°C° 0 mm 1 mps 759 mmHg 77%
    05:00 +2°C° 0 mm 1 mps 759 mmHg 79%
    06:00 +2°C° 0 mm 1 mps 759 mmHg 80%
    07:00 +3°C° 0 mm 1 mps 759 mmHg 76%
    08:00 +4°C° 0 mm 1 mps 760 mmHg 71%
    09:00 +4°C° 0 mm 2 mps 760 mmHg 67%
    10:00 +6°C° 0.2 mm 1 mps 760 mmHg 63%
    11:00 +7°C° 0.2 mm 1 mps 760 mmHg 60%
    12:00 +7°C° 0.2 mm 1 mps 760 mmHg 56%
    13:00 +8°C° 0.2 mm 1 mps 759 mmHg 54%
    14:00 +8°C° 0.2 mm 1 mps 759 mmHg 52%
    15:00 +7°C° 0.2 mm 2 mps 759 mmHg 50%
    16:00 +7°C° 0.1 mm 2 mps 759 mmHg 55%
    17:00 +5°C° 0.1 mm 3 mps 759 mmHg 60%
    18:00 +5°C° 0.1 mm 3 mps 759 mmHg 65%
    19:00 +4°C° 0 mm 3 mps 759 mmHg 70%
    20:00 +3°C° 0 mm 3 mps 759 mmHg 75%
    21:00 +2°C° 0 mm 3 mps 759 mmHg 79%
    22:00 +2°C° 0 mm 3 mps 759 mmHg 80%
    23:00 +2°C° 0 mm 2 mps 759 mmHg 80%

    25 March, Monday

    Time Temperature Precipitation Wind Pressure Humidity
    00:00 +2°C° 0 mm 2 mps 759 mmHg 80%
    01:00 +2°C° 0 mm 2 mps 759 mmHg 80%
    02:00 +2°C° 0 mm 2 mps 758 mmHg 81%
    03:00 0°C° 0 mm 3 mps 758 mmHg 81%
    04:00 +1°C° 0 mm 3 mps 758 mmHg 81%
    05:00 0°C° 0 mm 4 mps 758 mmHg 81%
    06:00 0°C° 0 mm 4 mps 758 mmHg 80%
    07:00 +1°C° 0 mm 4 mps 757 mmHg 77%
    08:00 +2°C° 0 mm 5 mps 757 mmHg 74%
    09:00 +3°C° 0 mm 5 mps 757 mmHg 71%
    10:00 +5°C° 0.1 mm 5 mps 757 mmHg 70%
    11:00 +4°C° 0.1 mm 6 mps 757 mmHg 68%
    12:00 +5°C° 0.1 mm 6 mps 757 mmHg 67%
    13:00 +5°C° 0.1 mm 6 mps 757 mmHg 68%
    14:00 +7°C° 0.1 mm 5 mps 756 mmHg 69%
    15:00 +7°C° 0.1 mm 5 mps 756 mmHg 70%
    16:00 +7°C° 0.1 mm 4 mps 756 mmHg 72%
    17:00 +7°C° 0.1 mm 3 mps 756 mmHg 73%
    18:00 +7°C° 0.1 mm 2 mps 756 mmHg 75%
    19:00 +6°C° 0 mm 2 mps 756 mmHg 76%
    20:00 +7°C° 0 mm 1 mps 757 mmHg 76%
    21:00 +6°C° 0 mm 1 mps 757 mmHg 77%
    22:00 +6°C° 0 mm 1 mps 757 mmHg 77%
    23:00 +5°C° 0 mm 1 mps 757 mmHg 76%

    26 March, Tuesday

    Time Temperature Precipitation Wind Pressure Humidity
    00:00 +5°C° 0 mm 1 mps 757 mmHg 76%
    01:00 +3°C° 0 mm 0 mps 757 mmHg 76%
    02:00 +3°C° 0 mm 0 mps 758 mmHg 76%
    03:00 +3°C° 0 mm 0 mps 758 mmHg 76%
    04:00 +2°C° 0 mm 0 mps 758 mmHg 77%
    05:00 +2°C° 0 mm 0 mps 758 mmHg 77%
    06:00 +2°C° 0 mm 0 mps 758 mmHg 78%
    07:00 +3°C° 0 mm 0 mps 759 mmHg 74%
    08:00 +6°C° 0 mm 1 mps 759 mmHg 69%
    09:00 +7°C° 0 mm 1 mps 759 mmHg 65%
    10:00 +8°C° 0 mm 1 mps 760 mmHg 60%
    11:00 +9°C° 0 mm 1 mps 760 mmHg 55%
    12:00 +9°C° 0 mm 0 mps 760 mmHg 50%
    13:00 +11°C° 0 mm 1 mps 760 mmHg 47%
    14:00 +11°C° 0 mm 1 mps 760 mmHg 44%
    15:00 +10°C° 0 mm 2 mps 760 mmHg 41%
    16:00 +10°C° 0 mm 2 mps 760 mmHg 43%
    17:00 +10°C° 0 mm 2 mps 760 mmHg 45%
    18:00 +10°C° 0 mm 1 mps 760 mmHg 47%
    19:00 +8°C° 0 mm 2 mps 761 mmHg 50%
    20:00 +7°C° 0 mm 2 mps 761 mmHg 52%
    21:00 +6°C° 0 mm 2 mps 761 mmHg 55%
    22:00 +6°C° 0 mm 2 mps 762 mmHg 58%
    23:00 +5°C° 0 mm 2 mps 762 mmHg 61%

    27 March, Wednesday

    Time Temperature Precipitation Wind Pressure Humidity
    00:00 +5°C° 0 mm 2 mps 762 mmHg 64%
    01:00 +4°C° 0 mm 2 mps 762 mmHg 67%
    02:00 +4°C° 0 mm 2 mps 762 mmHg 69%
    03:00 +4°C° 0 mm 2 mps 762 mmHg 71%
    04:00 +3°C° 0 mm 2 mps 763 mmHg 73%
    05:00 +3°C° 0 mm 2 mps 763 mmHg 74%
    06:00 +3°C° 0 mm 2 mps 763 mmHg 76%
    07:00 +4°C° 0 mm 2 mps 763 mmHg 70%
    08:00 +4°C° 0 mm 3 mps 764 mmHg 64%
    09:00 +7°C° 0 mm 3 mps 764 mmHg 59%
    10:00 +8°C° 0 mm 3 mps 764 mmHg 53%
    11:00 +8°C° 0 mm 4 mps 764 mmHg 47%
    12:00 +10°C° 0 mm 4 mps 764 mmHg 41%
    13:00 +9°C° 0 mm 5 mps 764 mmHg 40%
    14:00 +10°C° 0 mm 5 mps 764 mmHg 38%
    15:00 +10°C° 0 mm 5 mps 763 mmHg 37%
    16:00 +9°C° 0 mm 5 mps 763 mmHg 38%
    17:00 +10°C° 0 mm 4 mps 763 mmHg 39%
    18:00 +8°C° 0 mm 4 mps 763 mmHg 40%
    19:00 +8°C° 0 mm 3 mps 764 mmHg 42%
    20:00 +7°C° 0 mm 3 mps 764 mmHg 44%
    21:00 +5°C° 0 mm 3 mps 764 mmHg 45%
    22:00 +4°C° 0 mm 3 mps 764 mmHg 46%
    23:00 +4°C° 0 mm 3 mps 764 mmHg 47%
    Show more